964  
ASUS43 KIND 131410  
RWRIN  
 
WEATHER ROUNDUP FOR INDIANA  
NATIONAL WEATHER SERVICE INDIANAPOLIS IN  
1000 AM EDT MON JUL 13 2020  
 
NOTE: "FAIR" INDICATES FEW OR NO CLOUDS BELOW 12,000 FEET WITH NO  
SIGNIFICANT WEATHER AND/OR S TO VISIBILITY
.  
 
* - STATION DOES NOT REPORT WEATHER SUCH AS PRECIPITATION OR FOG.
 
 
+ - STATION NOT QUALITY CONTROLLED BY THE NATIONAL WEATHER SERVICE.  
USE DATA WITH CAUTION...ESPECIALLY DEWPOINT AND RELATIVE  
HUMIDITY OBSERVATIONS.  
 
INZ001>003-010>013-019-020-131500-  
NORTHWEST INDIANA  
 
CITY SKY/WX TMP DP RH WIND PRES REMARKS
 
GARY /AIRPORT/ MOSUNNY 75 63 64 NE9 30.02S  
KNOX *+ SUNNY 70 59 68 N8 30.01S  
LA PORTE + SUNNY 71 57 62 N7 30.03S  
MICHIGAN CITY+ SUNNY 70 66 88 N5 30.03S  
MONTICELLO + SUNNY 70 60 70 N5 30.00S  
RENSSELAER + SUNNY 68 63 83 N6 30.03R  
VALPARAISO SUNNY 72 58 61 NE7 30.02S  
 

 
 
LMZ046-743>745-131500-  
SOUTHERN LAKE MICHIGAN  
 
STATION/POSITION TIME TEMP WIND PRES WAVE
 
AIR SEA DIR/SP/G HT  
(UTC) (F) (DEG/KT/KT) (MB) (FT)  
5NW MICH CITY 1400 71 76 N/A 3  
 

 
 
INZ004-005-014>016-021>024-131500-  
NORTH CENTRAL INDIANA  
 
CITY SKY/WX TMP DP RH WIND PRES REMARKS
 
ELKHART SUNNY 68 57 68 NW7 30.02R  
GOSHEN SUNNY 70 59 68 NE8 30.00S  
LOGANSPORT + SUNNY 72 59 64 N8 30.01S  
PERU/GRISSOM SUNNY 71 65 81 N7 29.99R  
PLYMOUTH *+ SUNNY 72 55 56 N6G12 30.00S  
ROCHESTER + SUNNY 73 57 56 N8 30.01S  
SOUTH BEND SUNNY 72 59 63 N10 30.02R  
WARSAW + SUNNY 70 57 64 N7 30.01R  
 

 
 
INZ006>009-017-018-025>027-131500-  
NORTHEAST INDIANA  
 
CITY SKY/WX TMP DP RH WIND PRES REMARKS
 
ANGOLA *+ SUNNY 68 59 73 N7 30.00R  
AUBURN + SUNNY 72 61 68 N7 30.00R  
FORT WAYNE MOSUNNY 73 60 63 N9 29.98S  
HUNTINGTON + N/A 70 62 74 N5 29.99R  
KENDALLVILLE + FAIR 70 58 64 N7 30.01R  
 

 
 
INZ028-029-035-036-043>045-051>053-131500-  
WEST CENTRAL INDIANA  
 
CITY SKY/WX TMP DP RH WIND PRES REMARKS
 
CRAWFORDSVL + SUNNY 68 60 76 N7 30.01R  
GREENCASTLE + FAIR 69 63 80 N6 30.01R  
LAFAYETTE SUNNY 74 62 66 N6 30.00R  
TERRE HAUTE SUNNY 73 65 75 N7 30.00S  
 

 
 
INZ030>032-037>040-046>048-054>057-064-065-131500-  
CENTRAL INDIANA  
 
CITY SKY/WX TMP DP RH WIND PRES REMARKS
 
COLUMBUS SUNNY 70 63 78 N6 29.98S  
FRANKFORT + MOSUNNY 72 62 71 NE9 30.02R  
GREENWOOD *+ SUNNY 69 62 79 CALM 29.99S  
INDIANAPOLIS MOSUNNY 72 62 71 N6 29.98S  
-EAGLE CREEK SUNNY 71 61 70 N5 29.98S  
KOKOMO + SUNNY 73 64 73 N8 30.01R  
MARION + MOSUNNY 70 64 82 N6 29.99S  
MT COMFORT *+ SUNNY 68 68 100 NW6 29.99S  
SHELBYVILLE SUNNY 72 63 73 N7 29.97S  
ZIONSVILLE + SUNNY 67 67 100 N7 30.00R  
 

 
 
INZ033-034-041-042-049-050-058-059-131500-  
EAST CENTRAL INDIANA  
 
CITY SKY/WX TMP DP RH WIND PRES REMARKS
 
MUNCIE SUNNY 71 63 75 N6 29.98R  
PORTLAND + FAIR 70 59 68 N3 29.98R  
RICHMOND + FAIR 68 68 100 N5 29.98R  
 

 
 
INZ060-061-067>069-081>083-085>088-131500-  
SOUTHWEST INDIANA  
 
CITY SKY/WX TMP DP RH WIND PRES REMARKS
 
EVANSVILLE SUNNY 74 63 68 N10 29.97R  
HUNTINGBURG + SUNNY 73 67 81 VRB5 29.98R  
WASHINGTON + SUNNY 71 63 77 N5 29.99S  
 

 
 
INZ062-063-066-070>080-084-089>092-131500-  
SOUTH CENTRAL AND SOUTHEAST INDIANA  
 
CITY SKY/WX TMP DP RH WIND PRES REMARKS
 
BATESVILLE + SUNNY 72 68 88 CALM 29.98R  
BLOOMINGTON SUNNY 73 61 65 NW3 29.99R  
FRENCH LICK *+ FAIR 70 61 73 N5 29.99S  
JEFFERSONVL + FAIR 74 65 74 N3 29.97R  
MADISON *+ SUNNY 72 64 78 NW6 29.99R  
NORTH VERNON + SUNNY 68 63 83 NW5 29.98R  
SEYMOUR + SUNNY 73 64 73 NW7 29.98R  
 

 
 
 
 
CLICK HERE TO GO TO PREVIOUS BULLETINS.

The Nexlab IN Page Main Text Page